Showing default

SKYSAT C7, 42991

Orbit data source: Space-Track

SKYSAT C7, 42991 is a payload satellite owned by Terra Bella (US) in SSO that was launched on Tue, 31 Oct 2017 UTC via a MINOTAUR-C 3210 launch vehicle from the Air Force Western Test Range (AFWTR). Payloads include a variety of satellites, spacecraft, and rockets equipped with specific instruments for various scientific and technological missions. These include communications satellites like Starlink; space stations such as the ISS; scientific satellites like the Hubble; Earth observation satellites from companies like Planet Labs, Umbra, and HawkEye 360; GPS; miniature CubeSats for education and research; and military/defense satellites.

Loading next visibility...
SKYSAT C7 details
Identifier
42991, 2017-068E
Orbit
SSO
Last TLE update9 hours ago
Origin
Flag of USTerra Bella (US)
ManufacturerMaxar SSL
MissionOperational Commercial Imaging
Bus & MotorSKYSAT-GEN2, Unknown motor
Mass110 kg wet, 110 kg dry
Launch date (UTC)
2017-10-31 (7 years ago)
Launch vehicle
MINOTAUR-C 3210
Launch site
Air Force Western Test Range (AFWTR)
Object type
Payload
Rocket body
Debris
Shape & HBRBox, 1.2 m
Radar Cross Section0.888 m², Medium (>0.1 m² and < 1m²)

Expand to show TLE details & history

TLE from 9 hours ago
0 SKYSAT C7
1 42991U 17068E   24361.07218526  .00023008  00000-0  75639-3 0  9990
2 42991  97.3866 126.2207 0004328 183.1381 176.9834 15.31538587399946
Epoch: 2024-12-26T01:43Z
Definitive object data (Epoch: 2024-12-26T01:43:56.806Z)
Latitude-0.00002°
Longitude5.17718°
Altitude477.289 km
Speed7.625 km/s
True Right ascension08h 24m 52s
True Declination0° 00' 00"
Sunlit
Object was in full shadow at TLE epoch
Visualization TLE readout
Latitude-61.12561°
Longitude172.02589°
Altitude493.247 km
Speed7.618 km/s
Apparent Right ascension20h 59m 58s
Apparent Declination-52° 08' 23"
Sunlit
Object is in daylight
Visualization observer readout
Local Sidereal Time09:58:43
Azimuth145.285° SSE
Elevation-74.144°
Doppler factor1
Orbital elements
Apogee altitude471.134 km
Perigee altitude465.208 km
Semi-major axis6,846.308 km
Eccentricity0.0004328
Inclination97.3866°
RAAN126.2207°
Arg. of periapsis183.1381°
True anomaly176.98601°
Mean anomaly176.9834°
Eccentric anomaly176.9847°
Mean motion3.83141 °/min
BSTAR0.00075639
Orbital period93.96 mins
Loading maneuver chart data...
Loading historical data...
Loading historical data...
Loading historical data...
Loading historical data...
Loading historical data...
Loading historical data...
Loading historical data...

SKYSAT C7 Visibility forecast

Observer location: undefined°, undefined

Span
Click to sort rows by Start time (UTC) header in descending order
Start Az.
Max El. time (UTC)
Max El. Az.
Max El.
End time (UTC)
End Az.
6 mins2024-12-26 21:06:30.588Z26.4° NE2024-12-26 21:09:30.588Z93.341° ESE34.927°2024-12-26 21:12:30.588Z170.757° S
4 mins2024-12-27 09:14:30.588Z226.517° WSW2024-12-27 09:15:30.588Z253.679° W24.789°2024-12-27 09:18:30.588Z320.944° NNW
|